Вернуться в каталог

NOAA 16 DEB

АктивенSSO
NORAD 41147·DEBRIS·🇺🇸 United States

Запущен Sep 21, 2000 с Vandenberg Space Force Base

Loading…

Ближайшие Пролёты (ближайшие 24 часа)

TLE

СвежийSource: Space-Track

Эпоха: Sep 12, 2026, 08:24 UTC

1 41147U 00055CE  26255.35055341  .00003057  00000-0  14941-2 0  9999
2 41147  98.9517 297.5744 0069076 171.8302 188.4014 14.17476437550927

Отслеживайте NOAA 16 DEB в реальном времени с AllMySat

Download on the App Store